Juliana Airport, Sint Maarten

4:53 AM AST on July 22, 2017 (GMT -0400)
Princess Juliana International

Weather History for TNCM - November, 2012

Change the Weather History Date:

Wednesday, November 7, 2012

  Actual Average Record
Temperature  
Mean Temperature 82 °F -  
Max Temperature 86 °F 84 °F 102 °F (2001)
Min Temperature 79 °F 74 °F 74 °F (2016)
Cooling Degree Days 18    
Growing Degree Days 32 (Base 50)    
Moisture  
Dew Point 73 °F    
Average Humidity 71    
Maximum Humidity 84    
Minimum Humidity 55    
Precipitation  
Precipitation 0.00 in 0.16 in - ()
Sea Level Pressure  
Sea Level Pressure 29.91 in    
Wind  
Wind Speed 7 mph ()    
Max Wind Speed 12 mph    
Max Gust Speed -    
Visibility 6.7 miles    
Events      
Averages and records for this station are not official NWS values.
T = Trace of Precipitation, MM = Missing Value Source: Averaged Metar Reports

Daily Weather History Graph

Daily Weather History Graph

Search for Another Location

Airport or City:

Trip Planner

Search our weather history database for the weather conditions in past years. The results will help you decide how hot, cold, wet, or windy it might be!

Date:

Astronomy

Nov. 07, 2012 Rise Set
Actual Time 6:14 AM AST 5:37 PM AST
Civil Twilight 5:51 AM AST 6:00 PM AST
Nautical Twilight 5:25 AM AST 6:26 PM AST
Astronomical Twilight 4:59 AM AST 6:52 PM AST
Moon 12:02 AM AST (11/7) 12:51 PM AST (11/7)
Length of Visible Light 12h 08m
Length of Day
11h 22m
Last Quarter, 43% of the Moon is Illuminated
Nov 7
Last Quarter
Nov 13
New
Nov 20
First Quarter
Nov 28
Full
Dec 6
Last Quarter

Hourly Weather History & Observations

Time (AST) Temp. Heat Index Dew Point Humidity Pressure Visibility Wind Dir Wind Speed Gust Speed Precip Events Conditions
12:00 AM 82.4 °F 88.2 °F 73.4 °F 74% 29.92 in 6.2 mi ESE 9.2 mph - N/A   Partly Cloudy
1:00 AM 80.6 °F 85.4 °F 73.4 °F 79% 29.92 in 6.2 mi ESE 6.9 mph - N/A   Scattered Clouds
2:00 AM 81 °F - 73 °F 72% 29.90 in 25 mi ESE 8.1 mph - -   Scattered Clouds
2:00 AM 80.6 °F 85.4 °F 73.4 °F 79% 29.89 in 6.2 mi ESE 8.1 mph - N/A   Partly Cloudy
3:00 AM 80.6 °F 85.4 °F 73.4 °F 79% 29.86 in 6.2 mi ESE 9.2 mph - N/A   Scattered Clouds
4:00 AM 80.6 °F 85.4 °F 73.4 °F 79% 29.86 in 6.2 mi ESE 6.9 mph - N/A   Partly Cloudy
5:00 AM 81 °F - 74 °F 75% 29.89 in 25 mi East 8.1 mph - -   Partly Cloudy
5:00 AM 80.6 °F 86.2 °F 75.2 °F 84% 29.89 in 6.2 mi East 8.1 mph - N/A   Scattered Clouds
6:00 AM 80.6 °F 85.4 °F 73.4 °F 79% 29.89 in 6.2 mi ESE 6.9 mph - N/A   Mostly Cloudy
7:00 AM 80.6 °F 85.4 °F 73.4 °F 79% 29.92 in 6.2 mi ESE 6.9 mph - N/A   Mostly Cloudy
8:00 AM 82 °F - 73 °F 69% 29.95 in 19 mi ESE 8.1 mph - -   Mostly Cloudy
8:00 AM 82.4 °F 88.2 °F 73.4 °F 74% 29.95 in 6.2 mi ESE 9.2 mph - N/A   Mostly Cloudy
9:00 AM 84.2 °F 90.9 °F 73.4 °F 70% 29.95 in 6.2 mi ESE 10.4 mph - N/A   Mostly Cloudy
10:00 AM 84.2 °F 90.9 °F 73.4 °F 70% 29.95 in 6.2 mi East 11.5 mph - N/A   Mostly Cloudy
11:00 AM 86 °F - 72 °F 55% 29.94 in 44 mi ESE 8.1 mph - -   Mostly Cloudy
11:00 AM 86.0 °F 91.8 °F 71.6 °F 62% 29.92 in 6.2 mi ESE 8.1 mph - N/A   Mostly Cloudy
12:00 PM 86.0 °F 91.8 °F 71.6 °F 62% 29.92 in 6.2 mi SE 10.4 mph - N/A   Mostly Cloudy
1:00 PM 86.0 °F 93.4 °F 73.4 °F 66% 29.89 in 6.2 mi SE 10.4 mph - N/A   Mostly Cloudy
2:00 PM 85 °F - 74 °F 63% 29.89 in 44 mi SE 11.5 mph - -   Scattered Clouds
2:00 PM 86.0 °F 93.4 °F 73.4 °F 66% 29.89 in 6.2 mi SE 11.5 mph - N/A   Scattered Clouds
3:00 PM 86.0 °F 93.4 °F 73.4 °F 66% 29.89 in 6.2 mi SE 9.2 mph - N/A   Scattered Clouds
4:00 PM 86.0 °F 93.4 °F 73.4 °F 66% 29.86 in 6.2 mi SE 8.1 mph - N/A   Mostly Cloudy
5:00 PM 84 °F - 73 °F 63% 29.89 in 44 mi SE 5.8 mph - -   Scattered Clouds
5:00 PM 84.2 °F 90.9 °F 73.4 °F 70% 29.89 in 6.2 mi SE 5.8 mph - N/A   Partly Cloudy
6:00 PM 82.4 °F 88.2 °F 73.4 °F 74% 29.89 in 6.2 mi East 4.6 mph - N/A   Partly Cloudy
7:00 PM 82.4 °F 88.2 °F 73.4 °F 74% 29.89 in 6.2 mi ENE 4.6 mph - N/A   Partly Cloudy
8:00 PM 82 °F - 74 °F 70% 29.94 in 37 mi East 5.8 mph - -   Scattered Clouds
8:00 PM 82.4 °F 88.2 °F 73.4 °F 74% 29.92 in 6.2 mi East 5.8 mph - N/A   Partly Cloudy
9:00 PM 82.4 °F 88.2 °F 73.4 °F 74% 29.92 in 6.2 mi East 8.1 mph - N/A   Partly Cloudy
10:00 PM 82.4 °F 87.2 °F 71.6 °F 70% 29.95 in 6.2 mi East 5.8 mph - N/A   Partly Cloudy
11:00 PM 81 °F - 72 °F 69% 29.95 in 37 mi East 10.4 mph - -   Scattered Clouds
11:00 PM 80.6 °F 85.4 °F 73.4 °F 79% 29.95 in 6.2 mi East 10.4 mph - N/A   Partly Cloudy